Temperature
10 11 11 10 10 11 11 11 11 10 10 10 10 10 10 10 11 11 12 12 13 13 14 15 16 16 17 17 17 17 17 17 16 17 17 17 17 17 17 17 16 16 16 16
11 11 11 10 10 10 10 10 10 11 10 10 10 10 10 10 11 11 12 12 13 13 14 14 14 15 15 16 16 16 16 16 16 16 16 16 16 16 16 16 16 16 16 16
9 10 11 9 9 9 10 9 9 9 9 10 10 10 10 10 11 11 12 13 13 13 13 13 13 13 14 14 14 14 15 15 15 15 15 15 16 16 16 16 16 16 15 15
8 10 9 9 10 10 10 10 10 10 10 10 9 10 12 11 11 12 13 13 13 13 13 13 13 13 13 13 13 13 14 14 14 14 14 15 15 15 15 15 15 15 15 14
7 8 9 10 10 9 9 10 10 9 9 10 10 12 13 12 12 13 13 13 13 13 13 13 12 12 13 13 13 13 13 13 13 13 13 14 14 14 13 13 13 13 13 13
7 9 9 9 10 10 9 10 10 9 9 9 9 10 11 12 13 14 14 14 13 13 13 13 13 13 13 12 12 12 12 12 12 12 12 12 12 12 12 12 12 12 12 12
7 8 8 9 10 10 9 10 10 10 10 10 9 9 11 13 13 14 14 14 14 14 14 13 13 13 13 13 12 12 11 11 11 11 11 11 11 11 11 11 11 11 11 11
7 8 8 11 10 9 9 11 11 11 11 11 11 12 13 14 14 15 15 14 14 14 14 14 14 13 13 13 12 12 12 11 11 11 11 11 11 11 11 11 11 11 11 11
7 8 10 11 11 11 11 11 11 11 11 11 12 12 13 14 15 15 15 15 15 15 14 14 14 14 13 13 13 12 12 11 11 11 11 11 11 11 11 11 11 11 11 11
8 8 10 11 11 11 11 11 11 11 11 12 12 13 13 14 15 15 15 15 15 15 15 15 14 14 14 13 13 12 12 12 11 11 11 11 11 11 11 11 11 11 11 11
8 9 10 11 11 11 11 11 11 11 12 12 12 13 13 14 15 15 15 15 15 15 15 15 15 15 14 14 13 13 12 12 11 11 11 11 11 11 11 10 10 10 10 10
8 10 10 12 12 12 12 12 11 12 12 12 12 12 13 14 14 15 15 15 16 16 16 16 15 15 15 14 13 13 12 12 12 11 11 11 11 11 10 10 10 10 10 10
13 13 12 12 12 12 12 12 11 11 11 12 12 12 13 14 14 15 15 16 16 16 16 16 16 15 15 14 14 13 12 12 12 11 11 11 11 10 10 10 10 9 10 10
13 13 12 12 12 12 12 12 11 11 11 11 12 12 13 13 14 15 16 16 16 16 16 16 16 16 15 15 14 13 13 12 12 11 11 11 11 11 10 10 10 10 10 10
13 13 13 12 12 12 12 12 12 12 12 12 12 12 12 13 14 15 16 16 16 16 16 16 16 16 16 15 14 14 13 12 12 11 11 11 11 11 10 10 10 10 10 10
13 12 12 12 12 12 12 12 12 12 12 12 12 12 12 13 14 14 15 16 16 17 17 16 16 16 16 15 15 14 13 12 12 11 11 11 11 11 10 10 10 10 10 10
13 12 12 12 12 12 12 12 12 12 12 12 12 12 12 13 14 15 15 16 16 16 16 16 16 16 16 15 15 14 13 12 12 11 11 11 11 11 10 10 10 10 10 9
14 14 14 13 12 12 12 11 12 12 12 12 12 12 12 13 13 14 15 15 16 16 16 16 16 16 16 15 15 14 13 12 11 11 11 11 11 11 10 10 10 10 9 9
14 14 13 13 12 12 12 11 11 11 12 12 12 12 12 12 13 13 14 15 15 16 16 16 16 16 16 15 15 14 13 12 12 11 11 11 11 10 10 10 10 10 9 9
13 13 13 13 12 12 12 11 11 11 11 12 12 12 12 12 12 13 13 14 14 15 15 16 16 16 16 15 15 14 13 12 12 11 11 11 11 11 10 10 10 9 9 9
13 13 13 12 12 12 12 11 11 11 11 11 11 12 12 12 12 12 13 14 14 14 15 15 16 16 15 15 15 14 13 12 12 11 11 11 11 11 10 10 10 9 9 8
14 13 13 13 12 12 12 11 11 11 11 11 11 11 12 12 12 12 12 13 14 14 15 15 16 16 15 15 15 14 13 13 12 12 11 11 11 11 10 10 10 9 9 8
14 13 13 13 12 12 12 12 12 11 11 11 11 11 11 12 12 12 12 13 13 14 14 15 15 16 16 15 15 14 13 13 12 12 11 11 11 11 10 10 10 9 9 9
14 13 13 13 12 12 12 12 12 12 12 11 11 11 11 11 11 11 12 12 12 13 14 14 15 15 16 15 15 14 14 13 12 12 11 11 11 11 10 10 10 10 9 9
14 13 13 12 12 12 12 12 12 12 12 12 11 11 11 11 11 11 11 12 12 13 13 14 14 15 15 15 15 14 14 13 12 12 11 11 11 11 10 10 10 10 10 9
14 13 13 13 13 12 12 12 12 12 12 12 12 11 11 11 11 11 11 11 11 12 13 13 14 14 14 15 15 14 14 13 12 12 11 11 11 10 10 10 10 10 10 10
14 13 13 13 12 12 12 12 12 12 12 12 12 11 11 11 11 11 11 11 11 12 12 13 13 13 14 14 14 14 14 13 13 12 12 11 11 10 10 10 10 10 10 10
Wind_Speed
5 4 7 13 16 16 14 9 6 6 7 13 17 16 15 16 16 16 15 15 14 13 11 11 11 10 9 8 6 5 5 5 4 3 3 3 3 2 1 2 2 3 4 5
2 1 8 12 18 16 12 10 9 9 8 14 14 11 13 16 17 16 14 14 13 13 13 13 13 12 12 12 11 10 9 8 7 6 6 6 5 4 4 3 3 2 4 4
1 4 3 8 12 10 7 9 8 8 9 15 13 15 12 13 15 14 12 10 11 10 10 10 10 10 10 10 10 10 10 9 8 8 7 7 6 6 5 5 3 3 3 2
3 5 5 3 3 4 4 6 8 7 10 13 13 13 7 7 12 13 11 9 9 8 8 8 8 8 8 9 9 9 9 9 9 8 8 7 7 7 6 4 4 4 4 4
4 3 1 4 3 3 4 4 6 8 12 14 15 7 5 10 13 10 7 6 5 5 5 6 7 7 7 8 8 9 9 8 8 8 8 8 8 7 6 5 6 5 4 6
4 4 1 4 3 1 1 3 5 7 9 11 11 8 8 15 15 12 8 4 4 4 5 6 6 6 7 7 8 8 7 7 7 7 7 7 7 6 5 5 6 6 8 8
4 2 4 5 3 1 1 3 7 6 7 6 5 5 11 15 11 8 6 5 4 5 5 5 6 6 7 6 6 5 5 6 7 7 7 7 7 6 6 7 7 7 7 7
3 2 5 4 2 3 5 4 4 5 5 6 8 9 9 10 10 9 7 6 5 5 5 5 5 5 5 5 4 3 4 5 7 7 7 6 7 7 7 7 8 8 7 7
6 6 5 4 5 4 4 4 5 5 7 7 7 7 8 9 10 8 7 5 4 4 5 6 4 3 4 4 3 2 3 4 5 6 6 6 7 7 6 7 7 7 7 7
2 5 5 5 4 4 4 5 7 7 7 5 6 8 8 8 8 8 7 5 4 4 5 6 5 3 2 3 1 2 2 3 3 4 5 6 6 6 6 7 7 7 7 7
4 5 4 6 5 5 4 5 5 5 4 5 6 7 6 7 7 7 6 5 4 4 5 6 5 4 2 0 2 2 1 2 3 3 3 3 4 4 4 4 5 5 5 5
7 8 7 7 6 4 4 3 3 4 6 6 5 6 7 7 6 6 7 6 5 5 6 6 5 5 3 2 3 2 0 1 2 2 2 2 2 2 2 2 4 6 6 6
7 7 7 4 4 4 3 3 2 3 4 5 6 5 6 6 6 7 7 7 7 7 7 6 5 5 4 3 4 3 2 1 1 2 2 2 1 2 3 3 4 5 9 10
6 7 4 5 5 5 4 1 1 3 4 4 5 6 6 6 7 8 9 9 9 8 7 6 5 6 4 4 5 4 3 2 2 1 2 2 2 2 3 3 4 4 6 10
9 8 7 6 6 5 3 1 1 3 5 6 5 6 7 8 9 9 10 9 8 7 6 5 5 5 3 4 5 5 4 2 2 2 2 3 3 3 4 4 4 4 4 6
9 7 6 6 7 6 4 3 1 3 4 4 5 7 8 8 8 8 8 8 8 8 8 7 6 5 2 5 6 5 3 4 4 3 3 3 3 3 4 4 4 4 5 5
12 9 9 8 8 7 6 5 4 3 3 4 6 7 7 8 8 9 10 10 8 7 6 6 7 6 2 5 6 5 4 3 5 3 3 2 3 3 3 3 3 4 4 5
14 14 11 11 9 7 6 5 4 4 3 4 5 5 6 7 8 9 10 10 9 8 7 9 9 6 1 5 5 5 5 4 3 3 2 2 3 3 3 3 3 3 3 4
10 11 11 10 9 8 6 5 4 4 4 3 3 4 5 6 7 8 8 8 9 10 11 13 14 6 1 4 5 5 5 5 4 3 2 3 3 3 3 2 2 2 2 3
11 11 11 10 9 7 6 5 4 3 3 2 2 4 6 7 7 8 7 6 4 5 9 11 9 5 2 3 5 4 5 5 5 4 3 3 3 3 3 3 2 2 2 2
12 11 11 10 9 8 7 6 4 3 2 1 1 3 5 6 7 6 6 6 7 9 10 11 7 5 2 2 4 4 5 5 5 4 4 4 3 3 3 3 3 2 3 2
12 12 11 10 9 7 6 5 5 4 3 3 3 3 4 6 7 6 5 5 7 13 10 6 6 6 5 3 3 4 4 5 4 4 4 4 4 4 4 3 3 3 3 3
11 11 10 10 10 8 5 5 6 5 5 4 4 4 4 5 4 4 5 6 7 12 9 6 9 11 7 3 4 5 5 5 5 5 5 5 5 4 4 4 4 4 4 3
11 11 10 9 7 7 6 6 6 5 5 5 5 5 4 4 4 4 5 10 12 12 7 9 12 11 2 3 4 5 5 5 5 4 4 4 4 4 4 4 4 4 4 5
11 10 9 9 8 8 8 6 5 5 5 4 5 5 4 4 5 5 6 8 11 10 7 9 12 9 2 2 4 5 5 5 5 5 5 4 5 5 5 5 5 5 5 5
10 10 9 10 9 7 6 6 5 5 4 4 4 5 4 4 5 5 5 6 8 9 7 6 6 6 2 2 3 4 5 5 5 5 5 5 5 5 5 5 6 5 5 5
7 7 6 6 6 6 6 6 6 6 6 6 6 5 4 4 4 5 5 5 6 6 6 6 5 5 3 3 3 4 4 5 5 6 6 5 5 5 6 7 6 5 5 5
Wind_Direction
98 83 48 33 24 28 38 37 43 29 20 0 349 346 352 1 7 16 24 29 31 32 34 35 35 34 32 31 37 62 78 67 50 38 40 31 24 5 326 265 244 229 229 230
113 103 50 35 18 17 26 24 24 22 15 346 338 344 360 6 10 13 15 20 24 30 33 34 33 33 36 40 44 56 60 51 38 29 27 18 5 358 350 332 311 267 239 236
21 316 28 24 0 1 23 28 14 11 342 333 341 344 352 1 4 4 3 7 16 20 24 27 28 31 35 36 43 52 51 43 34 29 27 14 6 9 3 350 342 321 302 268
70 49 51 294 300 337 351 30 15 352 341 343 334 315 313 3 1 353 351 356 4 9 15 17 21 27 32 33 38 43 41 35 28 26 22 15 17 16 7 0 358 353 349 339
91 87 33 327 1 356 344 343 358 347 341 344 337 329 353 360 355 341 333 336 345 357 6 12 15 14 32 31 31 36 31 25 18 17 18 18 18 11 8 10 16 14 10 13
94 104 195 269 301 310 251 326 342 340 333 338 356 20 337 332 334 330 333 332 344 355 10 14 0 6 33 26 26 23 14 11 11 16 22 21 18 15 12 21 27 33 38 33
100 128 251 253 284 135 130 273 307 312 309 322 335 273 285 307 319 324 327 334 353 3 3 351 348 9 24 19 10 354 6 20 22 22 27 27 29 28 27 33 39 37 37 32
133 149 240 245 153 167 215 254 281 288 292 302 296 293 304 319 333 341 344 340 346 347 339 336 347 5 11 359 335 353 31 37 30 27 29 31 37 34 31 33 37 29 23 18
187 209 228 217 209 226 207 248 272 274 290 301 303 311 320 326 333 336 336 330 329 327 324 327 333 347 353 333 340 37 45 37 29 31 34 33 38 34 31 32 34 26 21 14
222 259 247 240 247 260 233 236 260 272 284 293 298 306 317 322 329 334 331 328 327 326 319 315 317 323 313 323 31 91 52 25 18 24 31 36 38 37 37 30 26 22 18 11
224 252 257 264 246 248 261 264 280 297 294 298 302 309 312 316 318 321 320 316 313 295 287 289 298 299 295 190 136 127 61 17 13 18 34 47 47 39 33 32 20 13 7 359
208 206 186 221 227 223 235 267 294 314 322 325 317 309 312 310 308 311 313 313 311 299 283 284 287 284 277 201 162 156 91 4 7 11 31 59 57 37 24 7 5 10 6 360
192 175 178 204 206 206 214 243 295 319 318 319 321 316 316 310 307 313 315 318 313 301 287 283 283 277 264 207 173 165 161 104 37 32 44 58 68 55 27 358 360 15 16 17
158 133 158 197 200 198 195 196 11 352 339 328 322 323 325 321 318 322 322 318 311 302 294 283 277 274 258 194 169 160 148 123 110 69 69 75 82 80 63 42 17 357 360 17
175 170 177 185 183 181 176 160 46 351 340 337 333 334 334 333 326 322 319 321 320 317 316 310 295 288 266 180 164 157 149 135 105 90 87 87 86 80 68 57 45 20 8 8
174 167 163 168 184 190 186 185 209 299 315 318 327 329 326 322 318 320 326 336 338 329 324 321 309 299 252 171 155 149 153 154 130 110 97 93 88 85 74 63 51 39 31 12
154 171 180 188 199 201 204 209 219 250 285 306 316 321 329 337 341 342 341 339 332 320 323 330 319 311 238 169 155 150 144 139 128 107 107 113 111 106 99 85 67 53 36 31
179 183 180 181 186 197 211 224 235 251 268 293 316 338 348 349 341 332 331 334 342 349 355 348 336 323 226 166 153 146 143 140 135 134 129 127 127 126 119 106 87 73 45 43
180 174 176 181 182 183 197 217 236 255 282 301 334 338 330 330 328 326 332 346 357 355 342 338 339 347 266 181 153 145 147 144 139 136 136 138 129 132 134 131 118 103 89 71
179 175 176 182 182 182 194 211 227 252 273 280 324 340 341 336 333 334 338 338 325 309 311 325 335 341 316 199 161 154 157 156 153 151 148 151 157 161 160 157 152 139 122 107
179 176 177 181 188 194 199 198 201 229 254 255 279 308 314 318 326 332 336 332 320 327 328 332 339 333 311 225 176 166 166 164 164 167 169 170 171 171 172 172 168 162 151 139
180 178 180 181 183 193 201 194 198 214 230 245 267 291 314 322 329 327 305 281 302 324 330 322 322 317 309 227 183 180 179 176 173 172 175 176 177 181 184 180 177 173 166 160
179 179 179 182 187 193 193 197 203 207 217 231 247 264 277 287 291 297 308 306 312 322 326 313 319 319 302 196 181 186 187 185 184 186 188 188 187 186 186 185 180 175 171 165
177 180 183 180 167 171 197 217 213 212 220 235 243 246 249 280 296 270 264 300 316 322 321 323 333 331 293 173 178 184 191 194 195 194 192 190 188 185 183 179 178 178 174 165
180 177 171 166 177 197 210 210 207 220 228 244 259 258 242 225 243 278 298 306 318 327 326 333 345 350 7 188 188 191 195 201 200 193 192 190 191 190 188 183 180 178 175 171
182 185 188 192 196 197 192 187 199 215 214 236 258 257 252 248 255 270 287 302 316 326 330 326 332 339 325 258 219 207 203 206 206 201 201 198 196 192 190 189 185 180 177 172
189 187 185 196 206 197 188 187 200 214 210 212 232 243 241 251 266 280 293 304 316 321 323 325 326 323 312 284 252 230 214 206 202 201 199 197 193 194 193 190 186 178 169 165
Height
1552 1550 1548 1547 1543 1538 1536 1536 1537 1538 1536 1536 1532 1527 1522 1516 1510 1504 1501 1498 1496 1494 1492 1490 1489 1488 1487 1487 1487 1488 1489 1490 1491 1492 1493 1494 1495 1496 1497 1498 1498 1499 1500 1500
1553 1550 1549 1550 1549 1546 1543 1543 1542 1540 1539 1538 1534 1529 1524 1519 1514 1510 1507 1504 1502 1499 1496 1494 1493 1491 1490 1489 1488 1489 1489 1490 1491 1491 1491 1492 1493 1494 1495 1495 1496 1496 1496 1497
1558 1553 1553 1560 1558 1556 1553 1552 1550 1548 1548 1540 1534 1530 1527 1523 1519 1516 1513 1510 1507 1505 1502 1500 1498 1497 1495 1493 1493 1492 1491 1491 1491 1491 1491 1491 1491 1492 1492 1492 1492 1493 1493 1493
1561 1559 1566 1567 1559 1558 1556 1554 1553 1550 1547 1542 1538 1533 1530 1527 1523 1520 1518 1516 1513 1511 1508 1506 1504 1502 1500 1498 1496 1495 1494 1493 1492 1491 1490 1490 1490 1490 1489 1489 1489 1489 1489 1489
1565 1566 1566 1562 1559 1559 1558 1555 1553 1551 1547 1542 1537 1532 1530 1528 1526 1524 1522 1520 1518 1516 1514 1512 1510 1508 1506 1503 1501 1498 1496 1494 1493 1492 1491 1490 1489 1488 1488 1488 1487 1487 1486 1486
1566 1566 1569 1565 1558 1558 1560 1557 1553 1551 1548 1545 1540 1539 1536 1531 1528 1526 1525 1524 1522 1520 1519 1516 1514 1512 1510 1507 1504 1501 1499 1498 1496 1494 1493 1492 1491 1490 1489 1488 1487 1487 1486 1485
1567 1568 1565 1559 1557 1557 1563 1561 1553 1551 1549 1546 1544 1544 1539 1533 1530 1528 1527 1526 1525 1523 1521 1519 1517 1515 1512 1510 1508 1506 1504 1502 1500 1498 1496 1495 1494 1493 1492 1491 1489 1488 1487 1486
1568 1568 1567 1555 1555 1557 1557 1553 1552 1550 1548 1546 1544 1541 1537 1534 1532 1530 1529 1528 1527 1525 1524 1522 1520 1518 1516 1513 1511 1509 1507 1505 1503 1501 1500 1499 1498 1496 1495 1493 1492 1490 1489 1487
1561 1561 1553 1552 1553 1553 1553 1552 1551 1549 1548 1546 1543 1540 1538 1535 1533 1532 1530 1529 1528 1527 1526 1524 1523 1521 1518 1516 1514 1512 1510 1508 1506 1505 1503 1502 1500 1499 1497 1495 1493 1491 1490 1488
1555 1553 1551 1551 1551 1551 1551 1551 1550 1549 1547 1545 1543 1541 1538 1536 1534 1533 1531 1530 1529 1528 1527 1526 1524 1522 1520 1518 1516 1514 1512 1511 1509 1507 1506 1504 1502 1500 1498 1496 1494 1492 1490 1489
1552 1550 1549 1549 1549 1550 1550 1550 1549 1548 1547 1545 1543 1541 1539 1537 1535 1533 1531 1530 1529 1528 1527 1526 1525 1523 1522 1520 1518 1516 1514 1512 1511 1509 1507 1506 1504 1502 1500 1498 1496 1494 1492 1490
1547 1543 1545 1546 1547 1548 1549 1549 1548 1547 1546 1545 1543 1541 1539 1536 1534 1533 1531 1530 1528 1527 1526 1526 1525 1523 1522 1520 1519 1517 1515 1513 1512 1510 1508 1507 1505 1503 1501 1500 1498 1496 1494 1493
1537 1539 1542 1544 1546 1547 1547 1547 1547 1547 1546 1544 1543 1541 1538 1536 1534 1532 1530 1529 1527 1526 1525 1525 1524 1523 1522 1520 1519 1517 1516 1514 1513 1511 1510 1508 1506 1505 1503 1502 1500 1499 1497 1495
1535 1538 1540 1542 1544 1545 1546 1546 1546 1546 1545 1544 1542 1540 1538 1535 1533 1532 1530 1528 1526 1525 1524 1523 1523 1522 1521 1520 1518 1517 1516 1515 1513 1512 1511 1509 1508 1506 1505 1503 1502 1501 1500 1498
1533 1536 1538 1540 1542 1544 1544 1545 1545 1545 1544 1543 1541 1539 1537 1535 1532 1531 1529 1527 1525 1524 1523 1522 1521 1521 1520 1519 1518 1517 1516 1515 1514 1513 1512 1511 1509 1508 1507 1506 1505 1504 1502 1501
1530 1534 1536 1538 1540 1542 1543 1543 1543 1543 1543 1541 1540 1538 1536 1534 1532 1530 1528 1526 1525 1523 1522 1521 1520 1519 1519 1518 1517 1516 1515 1515 1514 1513 1513 1512 1511 1510 1509 1508 1507 1506 1505 1504
1526 1530 1533 1536 1538 1539 1540 1541 1541 1541 1541 1540 1539 1537 1535 1533 1531 1529 1527 1526 1524 1523 1521 1520 1519 1518 1518 1517 1516 1516 1515 1515 1514 1514 1514 1513 1513 1512 1511 1510 1509 1508 1507 1506
1522 1526 1529 1532 1534 1536 1538 1539 1539 1539 1539 1538 1537 1536 1534 1532 1530 1528 1526 1525 1524 1522 1521 1520 1519 1518 1517 1517 1516 1515 1515 1514 1514 1514 1514 1514 1514 1513 1513 1512 1511 1510 1509 1508
1520 1524 1527 1530 1532 1534 1535 1536 1537 1537 1537 1537 1536 1534 1533 1531 1529 1527 1525 1524 1523 1522 1521 1519 1518 1517 1517 1516 1516 1515 1514 1514 1514 1514 1514 1514 1514 1514 1513 1513 1512 1512 1511 1509
1517 1521 1524 1527 1529 1531 1532 1533 1534 1535 1535 1535 1534 1533 1531 1530 1528 1527 1525 1523 1522 1520 1520 1518 1518 1517 1516 1516 1515 1515 1514 1514 1514 1514 1514 1514 1514 1514 1514 1514 1513 1512 1511 1510
1513 1518 1521 1524 1526 1528 1529 1531 1532 1533 1533 1533 1532 1531 1530 1528 1527 1525 1524 1522 1521 1520 1519 1517 1516 1516 1515 1515 1515 1514 1514 1514 1514 1514 1514 1514 1514 1514 1514 1514 1513 1513 1512 1511
1510 1514 1518 1521 1524 1525 1527 1528 1529 1530 1531 1530 1530 1529 1528 1527 1525 1524 1523 1521 1519 1518 1517 1515 1515 1514 1514 1514 1514 1514 1514 1513 1513 1513 1513 1514 1514 1514 1514 1513 1513 1512 1511 1510
1507 1512 1515 1519 1521 1523 1524 1525 1527 1527 1528 1528 1528 1527 1526 1525 1523 1522 1521 1519 1518 1516 1514 1513 1512 1512 1511 1512 1512 1512 1513 1513 1513 1512 1513 1513 1513 1513 1513 1513 1512 1511 1511 1510
1504 1508 1512 1516 1518 1520 1521 1523 1524 1524 1525 1525 1525 1524 1524 1523 1522 1521 1519 1517 1516 1514 1512 1510 1509 1509 1509 1509 1510 1510 1511 1511 1512 1512 1512 1512 1512 1512 1512 1512 1511 1511 1510 1509
1501 1505 1509 1512 1514 1516 1518 1520 1521 1521 1522 1522 1522 1522 1521 1520 1519 1518 1517 1515 1514 1512 1510 1508 1507 1506 1506 1507 1507 1508 1509 1510 1510 1511 1511 1511 1511 1511 1511 1511 1510 1510 1509 1508
1498 1501 1504 1507 1510 1512 1514 1516 1517 1518 1518 1519 1519 1519 1518 1518 1517 1516 1515 1513 1512 1510 1508 1506 1505 1504 1504 1504 1504 1505 1506 1507 1508 1509 1509 1509 1509 1509 1509 1510 1509 1509 1508 1508
1494 1497 1500 1503 1505 1508 1510 1511 1512 1513 1514 1515 1515 1515 1515 1515 1514 1513 1512 1511 1509 1508 1506 1504 1503 1502 1501 1501 1501 1502 1503 1504 1505 1506 1507 1507 1507 1507 1508 1508 1508 1508 1507 1507